Погода в Голине

Польша     52°14′43″N   18°05′41″E
темп.,
°C
ветер,
м/с
пор.,
м/с
влажн.,
%
обл.,
%
осадки,
мм/ч
давл.,
гПа
погр.,
м
26 февраля, пт
пт2601:00+8з36920 0.0 1026105
04:00+7з23942 0.0 102622
07:00+6з239431 0.0 102532
10:00+6сз2298100 2.0 102556
13:00+6зсз3690100 3.6 1026287
16:00+7зсз4974100 0.0 1025755
19:00+6з51178100 0.1 1027409
22:00+4зсз5118867 0.0 1027358
27 февраля, сб
сб2701:00+3зсз5139133 0.0 1028384
04:00+2зсз613907 0.0 1028490
07:00+3зсз5119247 0.0 1029368
10:00+5сз687983 0.0 1031693
13:00+7сз697181 0.0 1032918
16:00+8сз586440 0.0 10321132
19:00+4зсз478421 0.0 1034141
22:00+2сз34890 0.0 103489
28 февраля, вс
вс2801:000сз34890 0.0 103678
04:000зсз33870 0.0 103477
07:00+1зсз358450 0.0 1035128
10:00+4зсз356870 0.0 1035306
13:00+7з466735 0.0 1034592
16:00+8з47760 0.0 1033656
19:00+4зсз34917 0.0 103463
22:00+4с359462 0.0 1034197
1 марта, пн
пн101:00+2с239447 0.0 103538
04:00+1ссз22940 0.0 103522
07:00+1с12940 0.0 103622
10:00+5св11760 0.0 1037264
13:00+8ссз11620 0.0 1037439
16:00+9ссз11610 0.0 1036463
19:00+5всв11760 0.0 103722
22:00+4ююв11820 0.0 103722
2 марта, вт
вт201:00+3ююв12850 0.0 103722
04:00+2ююв23880 0.0 103722
07:00+1ююв22910 0.0 103622
10:00+6ююв34730 0.0 1036277
13:00+10ююв34510 0.0 1035548
16:00+10ююв35550 0.0 1033425
19:00+6ююв33730 0.0 103241
22:00+4ююз23790 0.0 103227